Terug naar catalogus

STARLINK-38224

ActiefCommunicatieSSO
NORAD 100197·PAYLOAD·🇺🇸 United States

Gelanceerd Aug 1, 2026 vanaf Vandenberg Space Force Base

Loading…

Volgende Passages (komende 24 uur)

TLE

VersSource: Space-Track

Epoch: Sep 14, 2026, 02:02 UTC

1 A0197U 26175U   26257.08479747  .00208257  00000-0  13612-2 0  9995
2 A0197  97.2828  99.1626 0001359  69.6729 290.4683 15.75226212  8165

Volg STARLINK-38224 in realtime met AllMySat

Download on the App Store